Saint Simons Island, GA

4:40 AM EST on December 07, 2019 (GMT -0500)
McKinnon

Weather History for KSSI - October, 2019

Change the Weather History Date:

Tuesday, October 15, 2019

  Actual Average Record
Temperature  
Mean Temperature 74 °F 70 °F  
Max Temperature 79 °F 78 °F 86 °F (1972)
Min Temperature 69 °F 63 °F 44 °F (1961)
Degree Days  
Heating Degree Days 0 1  
Month to date heating degree days 5  
Since 1 July heating degree days 5  
Cooling Degree Days 9 6  
Month to date cooling degree days 119  
Year to date cooling degree days 2490  
Growing Degree Days 24 (Base 50)    
Moisture  
Dew Point 69 °F    
Average Humidity 86    
Maximum Humidity 91    
Minimum Humidity 77    
Precipitation  
Precipitation 1.39 in 0.15 in 4.88 in (1964)
Month to date precipitation 2.63  
Year to date precipitation 38.50  
Snow  
Snow 0.00 in - 0.00 in ()
Month to date snowfall  
Since 1 July snowfall  
Since 1 September snowfall  
Snow Depth -    
Sea Level Pressure  
Sea Level Pressure 30.04 in    
Wind  
Wind Speed 5 mph (East)    
Max Wind Speed 13 mph    
Max Gust Speed 20 mph    
Visibility 8 miles    
Events Rain    
T = Trace of Precipitation, MM = Missing Value Source: NWS Daily Summary

Daily Weather History Graph

Daily Weather History Graph

Search for Another Location

Airport or City:

Astronomy

Oct. 15, 2019 Rise Set
Actual Time 7:28 AM EDT 6:54 PM EDT
Civil Twilight 7:03 AM EDT 7:18 PM EDT
Nautical Twilight 6:35 AM EDT 7:46 PM EDT
Astronomical Twilight 6:07 AM EDT 8:14 PM EDT
Moon 8:18 PM EDT (10/15) 8:54 AM EDT (10/15)
Length of Visible Light 12h 14m
Length of Day
11h 25m
Full, 97% of the Moon is Illuminated
Oct 15
Full
Oct 21
Last Quarter
Oct 27
New
Nov 4
First Quarter
Nov 12
Full

Hourly Weather History & Observations

Time (EDT) Temp. Dew Point Humidity Pressure Visibility Wind Dir Wind Speed Gust Speed Precip Events Conditions
12:53 AM 79.0 °F 71.1 °F 77% 30.08 in 10.0 mi Calm Calm - N/A   Clear
1:53 AM 79.0 °F 71.1 °F 77% 30.07 in 10.0 mi Calm Calm - N/A   Scattered Clouds
2:53 AM 78.1 °F 71.1 °F 79% 30.06 in 10.0 mi South 3.5 mph - N/A   Overcast
3:53 AM 78.1 °F 72.0 °F 81% 30.05 in 10.0 mi SW 5.8 mph - N/A   Mostly Cloudy
4:53 AM 77.0 °F 71.1 °F 82% 30.06 in 10.0 mi West 4.6 mph - N/A   Overcast
5:53 AM 72.0 °F 68.0 °F 87% 30.08 in 5.0 mi WSW 9.2 mph - 0.10 in Rain Rain
6:53 AM 71.1 °F 68.0 °F 90% 30.09 in 5.0 mi SW 8.1 mph - 0.14 in Rain Rain
7:53 AM 71.1 °F 68.0 °F 90% 30.09 in 10.0 mi SW 5.8 mph - 0.07 in   Overcast
8:53 AM 72.0 °F 68.0 °F 87% 30.09 in 8.0 mi SSW 3.5 mph - 0.03 in Rain Light Rain
9:03 AM 72.0 °F 69.1 °F 91% 30.09 in 5.0 mi SW 3.5 mph - 0.02 in Rain Light Rain
9:40 AM 71.1 °F 68.0 °F 90% 30.09 in 2.5 mi West 3.5 mph - 0.09 in Rain Rain
9:53 AM 71.1 °F 68.0 °F 90% 30.10 in 3.0 mi NW 3.5 mph - 0.12 in Rain Light Rain
10:37 AM 71.1 °F 68.0 °F 90% 30.10 in 2.0 mi NNW 3.5 mph - 0.08 in Rain Rain
10:46 AM 71.1 °F 68.0 °F 90% 30.11 in 1.5 mi NW 4.6 mph - 0.13 in Rain Heavy Rain
10:53 AM 71.1 °F 68.0 °F 90% 30.11 in 1.0 mi Calm Calm - 0.19 in Rain Heavy Rain
11:53 AM 69.1 °F 66.0 °F 90% 30.11 in 1.5 mi Calm Calm - 0.46 in Rain Heavy Rain
12:14 PM 69.1 °F 66.0 °F 90% 30.10 in 3.0 mi NNE 8.1 mph - 0.18 in Rain Rain
12:53 PM 71.1 °F 66.9 °F 87% 30.07 in 10.0 mi NE 6.9 mph - 0.23 in Rain Light Rain
1:53 PM 72.0 °F 66.9 °F 84% 30.06 in 10.0 mi NE 5.8 mph - 0.00 in   Overcast
2:53 PM 72.0 °F 66.9 °F 84% 30.04 in 10.0 mi NNE 6.9 mph - 0.00 in   Mostly Cloudy
3:53 PM 72.0 °F 68.0 °F 87% 30.03 in 10.0 mi NNE 4.6 mph - 0.01 in Rain Light Rain
4:53 PM 72.0 °F 69.1 °F 91% 30.01 in 10.0 mi NE 5.8 mph - 0.03 in Rain Light Rain
5:06 PM 73.0 °F 69.1 °F 87% 30.00 in 10.0 mi NE 6.9 mph - 0.00 in Rain Light Rain
5:53 PM 73.0 °F 69.1 °F 87% 30.00 in 10.0 mi ENE 6.9 mph - 0.00 in   Overcast
6:40 PM 73.0 °F 69.1 °F 87% 29.98 in 10.0 mi East 8.1 mph - N/A   Mostly Cloudy
6:53 PM 73.0 °F 68.0 °F 84% 29.99 in 10.0 mi East 6.9 mph - N/A   Scattered Clouds
7:23 PM 73.9 °F 69.1 °F 85% 29.99 in 10.0 mi East 8.1 mph - N/A   Mostly Cloudy
7:53 PM 75.0 °F 70.0 °F 84% 29.99 in 10.0 mi ESE 9.2 mph - N/A   Overcast
8:05 PM 75.0 °F 69.1 °F 82% 29.98 in 10.0 mi ESE 10.4 mph - N/A   Overcast
8:53 PM 75.9 °F 70.0 °F 82% 29.98 in 10.0 mi ESE 11.5 mph - 0.01 in Rain Light Rain
9:53 PM 77.0 °F 70.0 °F 79% 29.96 in 10.0 mi SE 12.7 mph - 0.00 in   Mostly Cloudy
10:53 PM 77.0 °F 71.1 °F 82% 29.95 in 10.0 mi SE 10.4 mph 19.6 mph N/A   Mostly Cloudy
11:53 PM 77.0 °F 72.0 °F 84% 29.95 in 10.0 mi SE 6.9 mph - 0.00 in Rain Light Rain